Location: Columbia
(38.9520°N, 92.3340°W)
Time: 17:31:31
(UTC-05:00)

Cosmos 1603 - Visible Passes

Search period start: 28 July 2014 00:00
Search period end: 07 August 2014 00:00
Orbit: 832 x 860 km, 71.0° (Epoch: 27 July)

Date Brightness Start Highest point End Pass type
(mag) Time Alt. Az. Time Alt. Az. Time Alt. Az.
28 Jul 4.4 01:13:18 10° NNW 01:17:29 49° NW 01:17:29 49° NW visible
28 Jul 5.6 23:16:47 10° NNE 23:20:27 17° NE 23:21:51 16° ENE visible
29 Jul 4.4 00:59:29 10° NNW 01:03:43 51° NW 01:03:43 51° NW visible
29 Jul 5.6 23:03:03 10° NNE 23:06:37 17° NE 23:08:08 15° ENE visible
30 Jul 4.3 00:45:41 10° NNW 00:50:00 53° NW 00:50:00 53° NW visible
30 Jul 5.7 22:49:19 10° NNE 22:52:47 16° NE 22:54:26 15° ENE visible
31 Jul 4.2 00:31:52 10° NNW 00:36:19 55° NW 00:36:19 55° NW visible
31 Jul 5.7 22:35:35 10° NNE 22:38:58 16° NE 22:40:47 14° ENE visible
01 Aug 4.1 00:18:04 10° NNW 00:22:40 59° NW 00:22:40 59° NW visible
01 Aug 5.7 22:21:51 10° NNE 22:25:08 15° NE 22:27:10 13° ENE visible
02 Aug 4.0 00:04:15 10° NNW 00:09:03 64° NW 00:09:03 64° NW visible
02 Aug 5.7 22:08:07 10° NNE 22:11:18 15° NE 22:13:34 12° ENE visible
02 Aug 3.9 23:50:27 10° NNW 23:55:27 69° NNW 23:55:27 69° NNW visible
03 Aug 5.7 21:54:24 10° NNE 21:57:29 15° NE 22:00:01 11° ENE visible
03 Aug 3.8 23:36:39 10° NNW 23:41:54 76° NNW 23:41:54 76° NNW visible
04 Aug 5.7 21:40:41 10° NNE 21:43:39 14° NE 21:46:29 10° E visible
04 Aug 3.6 23:22:51 10° NNW 23:28:23 84° NNW 23:28:23 84° NNW visible
05 Aug 5.7 21:26:59 10° NNE 21:29:49 14° NE 21:32:40 10° E visible
05 Aug 3.6 23:09:03 10° NNW 23:14:48 87° ENE 23:14:53 86° ESE visible
06 Aug 6.2 00:56:27 10° W 00:56:47 10° W 00:56:47 10° W visible
06 Aug 5.7 21:13:16 10° NNE 21:16:00 13° NE 21:18:43 10° ENE visible
06 Aug 3.5 22:55:15 10° NNW 23:01:00 85° ENE 23:01:26 76° SE visible
